Location: Ajisawe
(8.4333°N, 4.3833°E)
Time: 15:37:46
(UTC+00:00)

Transit 2A - Visible Passes

Search period start: 23 April 2021 00:00
Search period end: 03 May 2021 00:00
Orbit: 602 x 957 km, 66.7° (Epoch: 22 April)

Date Brightness Start Highest point End Pass type
(mag) Time Alt. Az. Time Alt. Az. Time Alt. Az.
23 Apr 7.2 04:15:14 10° S 04:20:20 40° ESE 04:24:57 10° NE visible
24 Apr 8.0 03:41:50 10° SSE 03:46:08 24° ESE 03:50:08 10° ENE visible
25 Apr 8.6 03:09:12 10° SE 03:11:57 14° ESE 03:14:34 10° E visible
25 Apr 6.6 04:50:06 10° SW 04:54:56 35° WNW 04:59:21 10° N visible
26 Apr 5.9 04:17:41 24° SW 04:20:49 61° WNW 04:25:37 10° N visible
27 Apr 5.9 03:45:36 55° S 03:46:42 78° ESE 03:51:32 10° NNE visible
28 Apr 7.0 03:13:21 41° E 03:13:21 41° E 03:17:11 10° NE visible
28 Apr 7.9 04:54:41 10° WNW 04:55:23 10° WNW 04:56:06 10° WNW visible
29 Apr 8.4 02:40:57 17° ENE 02:40:57 17° ENE 02:42:26 10° NE visible
29 Apr 7.4 04:21:29 18° WNW 04:21:29 18° WNW 04:24:35 10° NNW visible
30 Apr 7.3 03:48:58 24° NNW 03:48:58 24° NNW 03:51:22 10° N visible
01 May 7.9 03:16:19 19° N 03:16:19 19° N 03:17:41 10° N visible
02 May 8.7 02:43:33 11° NNE 02:43:33 11° NNE 02:43:41 10° NNE visible
